Vidsel, Sweden

11:23 PM CET on March 25, 2017 (GMT +0100)
Vidsel

Weather History for ESPE - December, 2013

Change the Weather History Date:

Friday, December 13, 2013

  Actual Average Record
Temperature  
Mean Temperature 19 °F -  
Max Temperature 30 °F - - ()
Min Temperature 5 °F - - ()
Degree Days  
Heating Degree Days 46    
Moisture  
Dew Point 17 °F    
Average Humidity 83    
Maximum Humidity 93    
Minimum Humidity 74    
Precipitation  
Precipitation 0.00 in - - ()
Sea Level Pressure  
Sea Level Pressure 29.87 in    
Wind  
Wind Speed 9 mph ()    
Max Wind Speed 20 mph    
Max Gust Speed -    
Visibility 6.2 miles    
Events Snow    
T = Trace of Precipitation, MM = Missing Value Source: Averaged Metar Reports

Daily Weather History Graph

Daily Weather History Graph

Search for Another Location

Airport or City:

Trip Planner

Search our weather history database for the weather conditions in past years. The results will help you decide how hot, cold, wet, or windy it might be!

Date:

Astronomy

Dec. 13, 2013 Rise Set
Actual Time 9:59 AM CET 1:07 PM CET
Civil Twilight 8:24 AM CET 2:42 PM CET
Nautical Twilight 7:08 AM CET 3:58 PM CET
Astronomical Twilight 6:04 AM CET 5:02 PM CET
Moon 12:17 PM CET (12/13) 4:19 AM CET (12/13)
Length of Visible Light 6h 18m
Length of Day
3h 08m
Waxing Gibbous, 86% of the Moon is Illuminated
Dec 13
Waxing Gibbous
Dec 17
Full
Dec 25
Last Quarter
Jan 1
New
Jan 8
First Quarter

Hourly Weather History & Observations

Time (CET) Temp. Windchill Dew Point Humidity Pressure Visibility Wind Dir Wind Speed Gust Speed Precip Events Conditions
12:20 AM 30.2 °F 20.8 °F 28.4 °F 93% 29.30 in 5.0 mi NNW 11.5 mph - N/A Snow Light Snow
12:50 AM 30.2 °F 20.2 °F 28.4 °F 93% 29.36 in 6.2 mi NNW 12.7 mph - N/A Snow Light Snow Grains
1:20 AM 30.2 °F 20.2 °F 26.6 °F 86% 29.39 in 6.2 mi NNW 12.7 mph - N/A Snow Light Snow
1:50 AM 28.4 °F 19.7 °F 26.6 °F 93% 29.44 in 6.2 mi NW 9.2 mph - N/A Snow Light Snow
2:20 AM 28.4 °F 19.7 °F 26.6 °F 93% 29.47 in 6.2 mi NW 9.2 mph - N/A   Scattered Clouds
2:50 AM 28.4 °F 19.1 °F 24.8 °F 86% 29.50 in 6.2 mi NW 10.4 mph - N/A   Unknown
3:20 AM 26.6 °F 19.1 °F 24.8 °F 93% 29.53 in 6.2 mi NW 6.9 mph - N/A   Scattered Clouds
3:50 AM 28.4 °F 19.1 °F 26.6 °F 93% 29.56 in 6.2 mi NW 10.4 mph - N/A   Mostly Cloudy
4:20 AM 30.2 °F 21.3 °F 26.6 °F 86% 29.59 in 6.2 mi NW 10.4 mph - N/A   Mostly Cloudy
4:50 AM 28.4 °F 18.5 °F 26.6 °F 93% 29.62 in 6.2 mi NW 11.5 mph - N/A   Mostly Cloudy
5:20 AM 28.4 °F 18.5 °F 23.0 °F 80% 29.65 in 6.2 mi NW 11.5 mph - N/A   Mostly Cloudy
5:50 AM 28.4 °F 16.2 °F 21.2 °F 74% 29.68 in 6.2 mi NW 17.3 mph - N/A Snow Light Snow Showers
6:20 AM 24.8 °F 14.0 °F 19.4 °F 80% 29.71 in 6.2 mi WNW 11.5 mph - N/A   Unknown
6:50 AM 23.0 °F 13.9 °F 17.6 °F 80% 29.74 in 6.2 mi NW 8.1 mph - N/A   Scattered Clouds
7:20 AM 23.0 °F 11.7 °F 17.6 °F 80% 29.77 in 6.2 mi NW 11.5 mph - N/A   Unknown
7:50 AM 19.4 °F 7.9 °F 15.8 °F 86% 29.80 in 6.2 mi WNW 10.4 mph - N/A   Unknown
8:20 AM 21.2 °F 10.1 °F 15.8 °F 80% 29.83 in 6.2 mi WNW 10.4 mph - N/A   Unknown
8:50 AM 19.4 °F 11.5 °F 15.8 °F 86% 29.86 in 6.2 mi NW 5.8 mph - N/A   Unknown
9:20 AM 19.4 °F 9.5 °F 15.8 °F 86% 29.86 in 6.2 mi NW 8.1 mph - N/A   Unknown
9:50 AM 19.4 °F 12.8 °F 14.0 °F 80% 29.89 in 6.2 mi NW 4.6 mph - N/A   Unknown
10:20 AM 17.6 °F 10.7 °F 14.0 °F 86% 29.92 in 6.2 mi NNW 4.6 mph - N/A   Unknown
10:50 AM 19.4 °F 14.3 °F 14.0 °F 80% 29.92 in 6.2 mi NW 3.5 mph - N/A   Unknown
11:20 AM 19.4 °F 12.8 °F 14.0 °F 80% 29.95 in 6.2 mi NNW 4.6 mph - N/A   Unknown
11:50 AM 19.4 °F 6.0 °F 14.0 °F 80% 29.95 in 6.2 mi WNW 13.8 mph - N/A   Unknown
12:20 PM 21.2 °F 9.5 °F 15.8 °F 80% 29.98 in 6.2 mi NW 11.5 mph - N/A   Unknown
12:50 PM 19.4 °F 6.0 °F 14.0 °F 80% 29.98 in 6.2 mi WNW 13.8 mph - N/A   Unknown
1:20 PM 19.4 °F - 14.0 °F 80% 30.01 in 6.2 mi Variable 2.3 mph - N/A   Unknown
1:50 PM 19.4 °F 10.4 °F 14.0 °F 80% 30.01 in 6.2 mi WNW 6.9 mph - N/A   Unknown
2:20 PM 21.2 °F 7.8 °F 15.8 °F 80% 30.01 in 6.2 mi WNW 15.0 mph - N/A   Unknown
2:50 PM 21.2 °F 8.3 °F 15.8 °F 80% 30.01 in 6.2 mi WNW 13.8 mph - N/A   Unknown
3:20 PM 23.0 °F 8.7 °F 15.8 °F 74% 30.01 in 6.2 mi WNW 18.4 mph - N/A   Unknown
3:50 PM 23.0 °F 8.7 °F 15.8 °F 74% 30.01 in 6.2 mi WNW 18.4 mph - N/A   Unknown
4:20 PM 23.0 °F 8.3 °F 15.8 °F 74% 30.01 in 6.2 mi WNW 19.6 mph - N/A   Unknown
4:50 PM 23.0 °F 9.6 °F 15.8 °F 74% 30.01 in 6.2 mi WNW 16.1 mph - N/A   Unknown
5:20 PM 23.0 °F 11.1 °F 15.8 °F 74% 30.04 in 6.2 mi NW 12.7 mph - N/A   Unknown
5:50 PM 21.2 °F 11.7 °F 14.0 °F 74% 30.04 in 6.2 mi WNW 8.1 mph - N/A   Unknown
6:20 PM 19.4 °F 9.5 °F 14.0 °F 80% 30.04 in 6.2 mi WNW 8.1 mph - N/A   Unknown
6:50 PM 19.4 °F 10.4 °F 14.0 °F 80% 30.06 in 6.2 mi WNW 6.9 mph - N/A   Unknown
7:20 PM 19.4 °F 12.8 °F 14.0 °F 80% 30.06 in 6.2 mi WSW 4.6 mph - N/A   Unknown
7:50 PM 17.6 °F 9.3 °F 14.0 °F 86% 30.06 in 6.2 mi West 5.8 mph - N/A   Unknown
8:20 PM 15.8 °F 8.6 °F 12.2 °F 86% 30.09 in 6.2 mi WNW 4.6 mph - N/A   Unknown
8:50 PM 17.6 °F 12.3 °F 14.0 °F 86% 30.09 in 6.2 mi NW 3.5 mph - N/A   Partly Cloudy
9:20 PM 12.2 °F - 10.4 °F 92% 30.12 in 6.2 mi WNW 2.3 mph - N/A   Unknown
9:50 PM 12.2 °F 0.7 °F 10.4 °F 92% 30.12 in 6.2 mi NW 8.1 mph - N/A   Unknown
10:20 PM 10.4 °F 4.0 °F 6.8 °F 85% 30.12 in 6.2 mi West 3.5 mph - N/A   Unknown
10:50 PM 8.6 °F 2.0 °F 5.0 °F 85% 30.15 in 6.2 mi NNW 3.5 mph - N/A   Partly Cloudy
11:20 PM 8.6 °F 0.1 °F 5.0 °F 85% 30.15 in 6.2 mi West 4.6 mph - N/A   Unknown
11:50 PM 5.0 °F - 3.2 °F 92% 30.15 in 6.2 mi Variable 2.3 mph - N/A   Unknown